Regional Weather Roundup
Issued by NWS

Home | Current Version | Previous Version | Graphics & Text | Print | Product List | Glossary On
Versions: 1 2 3 4 5 6 7 8 9 10 11 12 13 14 15 16 17 18 19 20 21 22 23 24 25 26 27 28 29 30 31 32 33 34 35 36 37 38 39 40 41 42 43 44 45 46 47 48 49 50
000
ASUS43 KDMX 192207
RWRIA

WEATHER ROUNDUP FOR IOWA
NATIONAL WEATHER SERVICE DES MOINES IA
500 PM CDT FRI SEP 19 2014

NOTE: "FAIR" INDICATES FEW OR NO CLOUDS BELOW 12,000 FEET WITH NO
SIGNIFICANT WEATHER AND/OR OBSTRUCTIONS TO VISIBILITY.

* - THESE STATIONS ARE NOT NWS STATIONS...THUS NOT UNDER NWS
QUALITY CONTROL.  THEY ALSO DO NOT REPORT WEATHER SUCH
AS PRECIPITATION OR FOG.

IAZ001>003-012>014-020>022-031>034-043>046-192300-
   NORTHWEST IOWA

CITY           SKY/WX    TMP DP  RH WIND       PRES   REMARKS
CARROLL *      SUNNY     81  68  65 S18G28    29.80F HX  83
CHEROKEE *     SUNNY     84  70  61 S21       29.74S HX  88
DENISON *      SUNNY     81  68  65 S16G25    29.77F HX  83
LE MARS *      SUNNY     88  66  48 S17G30    29.73S HX  90
ORANGE CITY *  SUNNY     88  63  42 SW22G30   29.73R HX  88
SHELDON *      SUNNY     86  66  51 SW22      29.71R HX  88
SIOUX CITY     SUNNY     89  65  44 SW17G25   29.74R HX  91
SPENCER        SUNNY     85  66  53 SW22G33   29.72S HX  87
STORM LAKE *   SUNNY     81  72  74 S16G26    29.77R HX  84
$$

IAZ055>058-069>071-079>083-090>094-192300-
   SOUTHWEST IOWA

CITY           SKY/WX    TMP DP  RH WIND       PRES   REMARKS
ATLANTIC *     SUNNY     79  68  69 S15G25    29.83F HX  81
AUDUBON *      SUNNY     79  66  65 S20       29.85R HX  81
CLARINDA *     PTSUNNY   77  68  73 SE14      29.89S
COUNCIL BLFS * SUNNY     82  72  69 S18G25    29.81F HX  87
CRESTON *      SUNNY     73  66  78 S17       29.89F
HARLAN  *      SUNNY     81  70  69 S21G26    29.85S HX  84
LAMONI         SUNNY     76  66  71 S13G22    29.92F
RED OAK *      SUNNY     81  68  65 S16G25    29.86S HX  83
SHENANDOAH *   SUNNY     82  70  65 S15G23    29.86F HX  86
$$

IAZ047>049-059>061-072>074-084-192300-
   CENTRAL IOWA

CITY           SKY/WX    TMP DP  RH WIND       PRES   REMARKS
AMES           SUNNY     79  66  64 S18       29.83F HX  81
ANKENY *       SUNNY     79  66  65 S15G24    29.85S HX  81
CHARITON *     SUNNY     77  64  65 S16G24    29.91F
DES MOINES     PTSUNNY   80  66  62 S18G29    29.86F HX  82
GRINNELL*      SUNNY     75  61  60 S17G24    29.90F
KNOXVILLE *    SUNNY     75  63  64 S16G25    29.89F
MARSHALLTOWN   SUNNY     77  62  59 S20G28    29.85F
PELLA *        SUNNY     77  63  61 S16G24    29.91F
PERRY *          N/A     81  66  61 S20G28    29.83S HX  83
$$

IAZ004>006-015-016-023>025-035-036-192300-
   NORTH CENTRAL IOWA

CITY           SKY/WX    TMP DP  RH WIND       PRES   REMARKS
ALGONA *       SUNNY     82  66  57 S29G37    29.73S HX  85
CLARION *        N/A     81  66  61 S26G36    29.77F HX  83
ESTHERVILLE    MOSUNNY   83  65  54 SW22G37   29.71R HX  85
FORT DODGE *   MOSUNNY   82  66  57 S21G30    29.79S HX  85
MASON CITY     MOSUNNY   79  65  62 S23G37    29.76F HX  81
FOREST CITY *  SUNNY     81  64  57 S24G33    29.74S HX  82
IOWA FALLS *     N/A     79  63  57 S22G29    29.83F HX  80
$$

IAZ007>011-017>019-026>030-037>042-050>054-066-192300-
   NORTHEAST IOWA

CITY           SKY/WX    TMP DP  RH WIND       PRES   REMARKS
CEDAR RAPIDS   SUNNY     73  59  61 S20G29    29.91F
CHARLES CITY * SUNNY     75  61  60 S21G33    29.80F
CLINTON *      MOSUNNY   72  52  49 S12G22    29.99F
DECORAH *      SUNNY     72  57  60 S21G31    29.81F
DUBUQUE        SUNNY     73  53  49 S18G28    29.93F
MONTICELLO *   SUNNY     75  55  50 S14G28    29.92F
OELWEIN *      SUNNY     75  59  57 S25G35    29.87F
WATERLOO       SUNNY     76  60  57 S22G33    29.84F
$$

IAZ064-065-067-068-078-192300-
   EAST CENTRAL IOWA

CITY           SKY/WX    TMP DP  RH WIND       PRES   REMARKS
DAVENPORT      SUNNY     74  51  44 S16       29.97F
IOWA CITY      SUNNY     75  58  55 S17       29.95F
MT. PLEASANT * SUNNY     77  54  44 S9        29.96F
MUSCATINE *    SUNNY     77  55  47 S18       29.96S
QUAD CITIES    SUNNY     76  53  44 S10       29.96F
$$

IAZ062-063-075>077-085>089-095>099-192300-
   SOUTHEAST IOWA

CITY           SKY/WX    TMP DP  RH WIND       PRES   REMARKS
BURLINGTON     SUNNY     76  56  49 S12G22    29.97F
FAIRFIELD *    SUNNY     75  57  53 S17       29.95F
FORT MADISON * SUNNY     79  55  44 S12       29.98F
KEOKUK *       SUNNY     75  57  53 S12       29.98S
OSKALOOSA *      N/A     75  61  60 S21       29.93S
CENTERVILLE *  SUNNY     75  64  69 S10G17    29.96S
OTTUMWA        SUNNY     76  59  55 S16G25    29.93F
WASHINGTON *   SUNNY     75  59  57 S14       29.95S
$$

ABBREVIATIONS USED IN REMARKS
   TC - TEMPERATURES IN CELSIUS
  WCI - WIND CHILL INDEX
   HX - HEAT INDEX
  VSB - VISIBILITY
$$




USA.gov is the U.S. government's official web portal to all federal, state and local government web resources and services.